[[{"header":{"parameterUnit":"m.s-1","parameterCategory":1,"la1":30.2991,"la2":30.254,"lo1":-89.0895,"lo2":-89.0444,"dy":0.0017,"dx":0.0017,"nx":28,"ny":28,"refTime":"2024-04-22T21:00:00:Z","depth":0,"parameterNumber":2,"parameterNumberName":"U-component_of_WINDS"},"data":[0,0,0,0,0,0,0,0,0,0,0,0,0,0,0,0,0,0,0,0,0,0,0,0,0,0,0,0,0,0,0,0,0,0,0,0,0,0,0,0,0,0,0,0,0,0,0,0,0,0,0,0,0,0,0,0,0,0,0.8682,0.8683,0,0.8709,0.8709,0.871,0.8711,0.8711,0.871,0.871,0.8735,0.8736,0.8737,0,0,0,0,0,0,0,0,0,0,0,0,0,0.8629,0.863,0.8682,0.8683,0.8683,0.8709,0.8709,0.871,0.8711,0.8711,0.871,0.871,0.8735,0.8736,0.8737,0,0,0,0,0,0,0,0,0,0,0,0,0,0.8653,0.863,0.8682,0.8687,0.8688,0.8709,0.8709,0.871,0.8711,0.8711,0.871,0.871,0.8735,0.8736,0.8737,0.8755,0,0,0.8742,0.8742,0,0,0,0,0,0,0,0,0.8652,0.8655,0.8686,0.8687,0.8687,0.8706,0.87,0.8725,0.8711,0.8702,0.871,0.871,0.8726,0.8728,0.8734,0.8757,0.8758,0.8742,0.8743,0.8743,0.8744,0,0,0,0,0,0,0,0.865,0.8654,0.8693,0.8686,0.8687,0.8686,0.8689,0.8705,0.8716,0.8703,0.8703,0.8706,0.8726,0.8733,0.8735,0.8758,0.8742,0.8743,0.8744,0.8745,0.8793,0.8794,0,0,0,0,0,0,0.8648,0.8653,0.8692,0.8694,0.8668,0.8688,0.8691,0.8701,0.8716,0.8718,0.8707,0.8706,0.873,0.8733,0.8735,0.8755,0.8743,0.8745,0.8746,0.8793,0.8794,0.8794,0,0,0,0,0,0,0.8647,0.8652,0.8691,0.8673,0.8678,0.8689,0.87,0.8701,0.8708,0.8719,0.8721,0.8711,0.873,0.8733,0.875,0.8756,0.8745,0.8747,0.8793,0.8793,0.8794,0.8797,0,0,0,0,0,0,0.8646,0.8651,0.8659,0.8674,0.8679,0.8706,0.87,0.8702,0.871,0.871,0.8724,0.8725,0.873,0.8748,0.8751,0.8758,0.8748,0.8792,0.8793,0.8794,0.8796,0.8798,0.8799,0,0,0,0,0,0.8644,0.8659,0.866,0.8665,0.869,0.8707,0.871,0.8715,0.8711,0.8718,0.8725,0.8725,0.8755,0.8749,0.8753,0.8761,0.8792,0.8793,0.8794,0.8796,0.8797,0.8799,0,0,0,0,0,0,0.8646,0.8661,0.8662,0.8683,0.8693,0.8707,0.8716,0.8717,0.8729,0.8728,0.8733,0.8736,0.8752,0.8758,0.8751,0.8777,0.8773,0.8775,0.8773,0.8775,0.8776,0.8774,0.8749,0,0,0,0,0,0.8649,0.8662,0.8675,0.8692,0.8697,0.8706,0.8713,0.8716,0.8727,0.8731,0.874,0.8749,0.876,0.8768,0.8779,0.8797,0.8799,0.8804,0.8805,0.8806,0.8807,0.8815,0.8817,0.8797,0.8797,0.8797,0,0,0.8655,0.8665,0.8673,0.8693,0.8701,0.8713,0.871,0.8723,0.8732,0.8733,0.8749,0.8755,0.8766,0.8782,0.879,0.8788,0.8813,0.8807,0.8808,0.8809,0.8816,0.8818,0.8819,0.8798,0.8798,0.8798,0,0,0.8672,0.8682,0.8696,0.8705,0.8717,0.8722,0.8726,0.8738,0.8742,0.8758,0.8759,0.8768,0.8789,0.8796,0.8802,0.8819,0.8819,0.8822,0.8829,0.8836,0.8837,0.8839,0.8843,0.8845,0.8824,0.8824,0.8824,0,0.8678,0.8698,0.8704,0.8717,0.8724,0.8726,0.8739,0.8746,0.8762,0.8766,0.8764,0.8787,0.8795,0.8812,0.8816,0.8822,0.8824,0.8821,0.8837,0.8838,0.884,0.8844,0.8846,0.8824,0.8824,0.8824,0.8824,0,0.8703,0.8716,0.8726,0.8741,0.8749,0.8762,0.8769,0.8776,0.8778,0.8783,0.8797,0.8806,0.8818,0.8823,0.8825,0.8839,0.8837,0.8836,0.8831,0.8842,0.8845,0.8847,0.8824,0.8824,0.8824,0.8824,0,0,0.8724,0.874,0.8743,0.8748,0.8761,0.8771,0.8783,0.8795,0.88,0.881,0.8819,0.8835,0.8833,0.884,0.8843,0.8849,0.886,0.8847,0.8847,0.8847,0.8874,0.8874,0.8876,0.886,0.886,0.886,0.8872,0,0.8741,0.8764,0.8768,0.8787,0.8797,0.8798,0.8808,0.8816,0.8821,0.8829,0.8834,0.8844,0.8842,0.8846,0.8852,0.8857,0.8865,0.8856,0.8867,0.8867,0.8863,0.8879,0.888,0.8891,0.8874,0.8874,0.8875,0,0.8765,0.8775,0.8794,0.8804,0.8808,0.8818,0.8827,0.8836,0.8845,0.8847,0.8854,0.8855,0.8866,0.8861,0.8875,0.8869,0.8873,0.8876,0.8876,0.8877,0.8871,0.8878,0.8895,0.8896,0.8877,0.8877,0.8877,0,0.8775,0.8794,0.8807,0.8812,0.8824,0.883,0.8835,0.8842,0.8848,0.8857,0.886,0.887,0.8875,0.8881,0.8884,0.8881,0.8897,0.8893,0.8899,0.8898,0.8902,0.8901,0.8918,0.8906,0.8906,0.8906,0.8906,0,0.8794,0.8805,0.8812,0.882,0.8832,0.8836,0.8848,0.8853,0.8859,0.8867,0.8868,0.8876,0.888,0.8887,0.889,0.89,0.8902,0.8904,0.8904,0.8903,0.8903,0.8906,0.8905,0.8906,0.8906,0.8906,0.8906,0,0.8807,0.8813,0.8827,0.8836,0.8839,0.8847,0.8854,0.8861,0.8865,0.8875,0.8878,0.8883,0.8892,0.8896,0.8907,0.8908,0.8919,0.892,0.8916,0.8916,0.8921,0.892,0.894,0.8942,0.8929,0.8929,0.8929,0,0.8818,0.8827,0.8837,0.8842,0.8847,0.8856,0.8862,0.8866,0.8871,0.888,0.8886,0.8895,0.8902,0.8915,0.892,0.8927,0.8927,0.8933,0.8928,0.8927,0.8926,0.8925,0.8925,0.8934,0.8934,0.8934,0.8934,0,0.8836,0.8838,0.8846,0.8855,0.8862,0.8869,0.8876,0.8881,0.8885,0.8891,0.89,0.8905,0.8916,0.8924,0.8932,0.8935,0.8935,0.8936,0.8937,0.8936,0.8933,0.8934,0.8918,0.8935,0.8935,0.8935,0.8935,0.8935,0.8848,0.8855,0.8862,0.8871,0.8876,0.8882,0.8889,0.8893,0.8901,0.891,0.8911,0.892,0.8926,0.8936,0.894,0.8946,0.8945,0.8947,0.8948,0.8948,0.8948,0.8933,0.8948,0.8948,0.8948,0.8948,0.8948,0,0.8864,0.8869,0.8877,0.8886,0.8893,0.8892,0.8899,0.8904,0.8912,0.8918,0.8925,0.8934,0.8941,0.8946,0.8953,0.8957,0.8957,0.8958,0.8958,0.8958,0.8949,0.8947,0.8958,0.8958,0.8958,0.8958,0.8958,0.8958,0.8874,0.8885,0.8887,0.89,0.8904,0.8913,0.8917,0.8922,0.8926,0.8936,0.8942,0.8945,0.895,0.8957,0.8963,0.8964,0.8966,0.8968,0.8969,0.896,0.8959,0.8958,0.8956,0.8969,0.8969,0.8977,0.8977,0.8977]},{"header":{"parameterUnit":"m.s-1","parameterCategory":1,"la1":30.2991,"la2":30.254,"lo1":-89.0895,"lo2":-89.0444,"dy":0.0017,"dx":0.0017,"nx":28,"ny":28,"refTime":"2024-04-22T21:00:00:Z","depth":0,"parameterNumber":3,"parameterNumberName":"V-component_of_WINDS"},"data":[0,0,0,0,0,0,0,0,0,0,0,0,0,0,0,0,0,0,0,0,0,0,0,0,0,0,0,0,0,0,0,0,0,0,0,0,0,0,0,0,0,0,0,0,0,0,0,0,0,0,0,0,0,0,0,0,0,0,2.1683,2.1683,0,2.1741,2.1742,2.1742,2.1701,2.17,2.1698,2.1696,2.1752,2.1755,2.1758,0,0,0,0,0,0,0,0,0,0,0,0,0,2.153,2.1533,2.1682,2.1683,2.1684,2.1741,2.1742,2.1743,2.1702,2.17,2.1697,2.1695,2.1751,2.1755,2.1759,0,0,0,0,0,0,0,0,0,0,0,0,0,2.1593,2.1534,2.1682,2.1671,2.167,2.1741,2.1742,2.1743,2.1702,2.1699,2.1697,2.1694,2.175,2.1754,2.1759,2.1843,0,0,2.1774,2.1776,0,0,0,0,0,0,0,0,2.1589,2.1598,2.1672,2.1672,2.1671,2.1711,2.1708,2.1776,2.1703,2.169,2.1696,2.1693,2.174,2.1746,2.1763,2.1846,2.1849,2.1774,2.1777,2.1779,2.178,0,0,0,0,0,0,0,2.1585,2.1596,2.1706,2.1673,2.1672,2.166,2.1666,2.1721,2.173,2.1691,2.1688,2.1696,2.174,2.1758,2.1764,2.1849,2.1774,2.1778,2.1781,2.1783,2.2001,2.2004,0,0,0,0,0,0,2.1582,2.1592,2.1704,2.1707,2.1623,2.1665,2.1672,2.1701,2.1729,2.1731,2.1698,2.1694,2.1751,2.1758,2.1765,2.1864,2.1779,2.1784,2.1786,2.1998,2.2002,2.2005,0,0,0,0,0,0,2.1579,2.1593,2.1701,2.1649,2.1662,2.1671,2.1704,2.1704,2.1722,2.1734,2.1735,2.1716,2.1749,2.1759,2.1824,2.1865,2.1786,2.179,2.1995,2.2,2.2004,2.2062,0,0,0,0,0,0,2.1575,2.1592,2.1625,2.165,2.1665,2.1761,2.1706,2.1707,2.1731,2.1726,2.1751,2.1753,2.1748,2.1817,2.1829,2.187,2.1794,2.1991,2.1997,2.2002,2.2057,2.2068,2.2078,0,0,0,0,0,2.157,2.1639,2.1627,2.1641,2.1708,2.1763,2.1771,2.1766,2.1735,2.1767,2.1775,2.1752,2.1859,2.1824,2.1837,2.188,2.1989,2.1995,2.2002,2.2052,2.2066,2.2078,0,0,0,0,0,0,2.1618,2.1643,2.1629,2.171,2.1735,2.1756,2.1797,2.1781,2.1815,2.1808,2.1798,2.1804,2.1872,2.1883,2.1844,2.1962,2.1919,2.1928,2.1952,2.1966,2.1976,2.1971,2.1798,0,0,0,0,0,2.1639,2.1684,2.1702,2.177,2.1784,2.1789,2.1813,2.1806,2.1831,2.1841,2.1853,2.1877,2.1916,2.1942,2.1978,2.2058,2.2062,2.2095,2.2105,2.2114,2.2121,2.2162,2.2176,2.2027,2.2027,2.2027,0,0,2.1681,2.1699,2.1728,2.1781,2.1799,2.1844,2.1798,2.1847,2.1879,2.1848,2.191,2.192,2.1946,2.2018,2.2051,2.2029,2.2163,2.2122,2.2129,2.2132,2.217,2.2184,2.2196,2.2031,2.203,2.203,0,0,2.1779,2.1799,2.1857,2.1877,2.1906,2.1908,2.1922,2.1946,2.1952,2.2014,2.1991,2.2028,2.2096,2.2114,2.2132,2.2236,2.2215,2.2248,2.2303,2.2342,2.2354,2.2364,2.2399,2.2411,2.2256,2.2256,2.2257,0,2.1827,2.1895,2.1889,2.194,2.1962,2.1937,2.1994,2.2013,2.2052,2.2067,2.2043,2.2126,2.2142,2.2217,2.2242,2.2259,2.2272,2.2245,2.2353,2.2363,2.2373,2.2405,2.2419,2.226,2.226,2.2259,2.2259,0,2.1951,2.1998,2.2041,2.208,2.2107,2.2161,2.2162,2.219,2.2181,2.2185,2.2247,2.2265,2.2303,2.2321,2.2313,2.2394,2.2379,2.2355,2.2311,2.2391,2.2421,2.2434,2.2265,2.2264,2.2263,2.2262,0,0,2.2081,2.2116,2.2131,2.2147,2.2177,2.2212,2.2264,2.2302,2.2325,2.2353,2.2394,2.2451,2.2428,2.2449,2.2442,2.2477,2.2554,2.2447,2.2447,2.2464,2.2642,2.2659,2.2673,2.2541,2.2544,2.2546,2.2639,0,2.218,2.2271,2.2266,2.2351,2.2392,2.2368,2.2413,2.2434,2.2439,2.2474,2.2479,2.2519,2.2486,2.2498,2.2532,2.2538,2.2589,2.2531,2.2577,2.2579,2.2569,2.269,2.2708,2.2795,2.2651,2.2653,2.2654,0,2.2306,2.2338,2.2427,2.2448,2.2465,2.2506,2.2539,2.2574,2.2597,2.2598,2.262,2.2607,2.2657,2.2613,2.2679,2.264,2.2658,2.2664,2.2667,2.2669,2.262,2.2693,2.2823,2.2835,2.2673,2.2672,2.2671,0,2.2389,2.2455,2.2516,2.2531,2.2557,2.2586,2.2598,2.2618,2.2641,2.267,2.2684,2.2718,2.2737,2.2762,2.2758,2.2727,2.2825,2.2781,2.2825,2.2825,2.2845,2.2843,2.2978,2.2861,2.2861,2.286,2.286,0,2.2498,2.2553,2.2553,2.259,2.265,2.2643,2.2702,2.271,2.2729,2.2765,2.2747,2.2781,2.2774,2.2808,2.2805,2.2859,2.2868,2.2868,2.2866,2.2869,2.2868,2.2879,2.2872,2.2864,2.2863,2.2862,2.2862,0,2.2601,2.2603,2.2667,2.2687,2.2694,2.2736,2.2752,2.2786,2.279,2.2836,2.2847,2.2851,2.289,2.2889,2.2933,2.293,2.2996,2.2988,2.2988,2.2986,2.3029,2.3024,2.3173,2.3191,2.3064,2.3066,2.3067,0,2.2669,2.271,2.2734,2.2758,2.2772,2.2811,2.2834,2.2828,2.2852,2.2881,2.2911,2.2948,2.2977,2.304,2.3046,2.3079,2.307,2.312,2.3075,2.3075,2.3068,2.3064,2.3067,2.3128,2.313,2.3131,2.3132,0,2.2789,2.2787,2.2822,2.2856,2.2884,2.2911,2.2935,2.2956,2.2952,2.298,2.302,2.3043,2.3087,2.3123,2.3154,2.3165,2.3147,2.3146,2.3157,2.3159,2.3157,2.3156,2.301,2.3142,2.3141,2.314,2.314,2.3139,2.2874,2.2909,2.2931,2.2969,2.2987,2.3009,2.3042,2.3049,2.3082,2.3119,2.3113,2.3157,2.3176,2.3216,2.323,2.3262,2.3244,2.3261,2.3265,2.3269,2.3273,2.3153,2.3268,2.3268,2.3268,2.3267,2.3267,0,2.299,2.3003,2.3039,2.3073,2.3103,2.3085,2.3111,2.3136,2.3175,2.3195,2.3224,2.3269,2.3303,2.3312,2.3345,2.3369,2.3361,2.3377,2.3374,2.3376,2.3288,2.3274,2.3383,2.3383,2.3383,2.3383,2.3383,2.3383,2.3054,2.3111,2.3112,2.3177,2.3189,2.3232,2.3248,2.3268,2.3284,2.3334,2.3363,2.3369,2.3384,2.3417,2.3448,2.3449,2.3461,2.348,2.3478,2.3395,2.3383,2.3372,2.3358,2.3483,2.3483,2.3563,2.3563,2.3564]}]]